Regional Weather Roundup
Issued by NWS Goodland, KS

Home | Current Version | Previous Version | Text Only | Print | Product List | Glossary On
Versions: 1 2 3 4 5 6 7 8 9 10 11 12 13 14 15 16 17 18 19 20 21 22 23 24 25 26 27 28 29 30 31 32 33 34 35 36 37 38 39 40 41 42 43 44 45 46 47 48 49 50
000
ASUS43 KGLD 281208
RWRGLD

GOODLAND FORECAST AREA HOURLY WEATHER ROUNDUP
NATIONAL WEATHER SERVICE GOODLAND KS
600 AM MDT FRI APR 28 2017

...OFFICIAL OBSERVATIONS...

CITY           SKY/WX    TMP DP  RH WIND       PRES   REMARKS
GOODLAND KS    CLOUDY    38  37  97 NW16      29.61S
HILL CITY KS   CLOUDY    47  47 100 CALM      29.59S FOG
IMPERIAL NEB   LGT RAIN  37  35  92 NE13      29.64R
MCCOOK NEB     LGT RAIN  43  43 100 NE14      29.59S FOG
AKRON CO       CLOUDY    33  31  92 SW9       29.62R
BURLINGTON CO  NOT AVBL
LIMON CO       CLEAR     24  23  96 CALM      29.65R
$$

...UNOFFICIAL OBSERVATIONS...

CITY           SKY/WX    TMP DP  RH WIND       PRES   REMARKS
LENORA KS        N/A     45  32  60 MISG        N/A
NORTON KS      CLOUDY    45  43  93 E9        29.58S FOG
SHARON SPRINGS   N/A     34  32  94 SW7         N/A
KIT CARSON CO    N/A     31  28  87 CALM        N/A
YUMA CO        CLOUDY    36  36 100 N5        29.63R
$$




USA.gov is the U.S. government's official web portal to all federal, state and local government web resources and services.